Overview Statistics Trail Chart Weather Telemetry Raw packets
 

This is the latest recevied weather packets stored in our database for station/object S51FO-6. If no packets are shown the sender has not sent any weather packets the latest 10 day(s).

<< 39 40 41 42 43 44 45 >>
Time Temp. Humidity Pressure Rain* Wind** Luminosity Snow
1787775581 11.11° C 83% - 0 mm - - -
1787774995 11.11° C 83% - 0 mm - - -
1787774381 11.11° C 83% - 0 mm - - -
1787773789 11.11° C 83% - 0 mm - - -
1787773181 11.67° C 83% - 0 mm - - -
1787771981 12.78° C 84% - 0 mm - - -
1787771382 12.78° C 83% - 0 mm - - -
1787770779 12.78° C 83% - 0 mm - - -
1787769581 12.78° C 83% - 0 mm - - -
1787768979 12.78° C 81% - 0 mm - - -
1787768601 12.78° C 78% - 0 mm - - -
1787768379 12.78° C 78% - 0 mm - - -
1787767779 13.89° C 77% - 0 mm - - -
1787767251 14.44° C 78% - 0 mm - - -
1787767179 14.44° C 78% - 0 mm - - -
1787766579 15° C 77% - 0 mm - - -
1787765979 15.56° C 76% - 0 mm - - -
1787765379 16.11° C 74% - 0 mm - - -
1787762379 20° C 57% - 0 mm - - -
1787761779 21.11° C 54% - 0 mm - - -
1787759979 22.78° C 51% - 0 mm - - -
1787759379 22.22° C 51% - 0 mm - - -
1787758179 22.22° C 51% - 0 mm - - -
1787756379 23.89° C 45% - 0 mm - - -
1787755179 23.89° C 44% - 0 mm - - -

* Rain latest hour (hover to see other rain measurements)
** Current wind speed in m/s (hover to see current wind gust speed)